{"data":{"norad_id":66146,"epoch":"2026-09-20T15:06:01.939968Z","epoch_age_seconds":89245,"freshness":"FRESH","line1":"1 66146U 25240A   26263.62918912  .00010663  00000+0  32644-3 0  9990","line2":"2 66146  53.1567 233.1549 0001300 102.8352 257.2796 15.34383745 51944","mean_motion":15.34383745,"eccentricity":0.00013,"inclination_deg":53.1567,"raan_deg":233.1549,"arg_perigee_deg":102.8352,"mean_anomaly_deg":257.2796,"bstar":0.00032644,"rev_number":5194,"period_min":93.848752288496,"perigee_km":461.8622384072,"apogee_km":463.64086943122,"semimajor_km":6840.8885539192,"source":"CELESTRAK","updated_at":"2026-09-21T09:00:35.812143Z"}}